Middlesboro, KY

5:47 PM CDT on April 25, 2017 (GMT -0500)
Middlesboro

Weather History for K1A6 - September, 2013

Change the Weather History Date:

Saturday, September 21, 2013

  Actual Average (KLOZ) Record (KLOZ)
Temperature  
Mean Temperature 61 °F -  
Max Temperature 69 °F 77 °F 93 °F (1955)
Min Temperature 53 °F 55 °F 35 °F (1956)
Degree Days  
Heating Degree Days 4    
Growing Degree Days 11 (Base 50)    
Moisture  
Dew Point 62 °F    
Average Humidity 93    
Maximum Humidity 100    
Minimum Humidity 77    
Precipitation  
Precipitation 1.15 in - - ()
Sea Level Pressure  
Sea Level Pressure 29.83 in    
Wind  
Wind Speed 1 mph (SSE)    
Max Wind Speed 8 mph    
Max Gust Speed 16 mph    
Visibility 7 miles    
Events Rain    
Averages and records for this station are not official NWS values.
T = Trace of Precipitation, MM = Missing Value Source: NWS Daily Summary

Daily Weather History Graph

Daily Weather History Graph

Search for Another Location

Airport or City:

Trip Planner

Search our weather history database for the weather conditions in past years. The results will help you decide how hot, cold, wet, or windy it might be!

Date:

Astronomy

Sep. 21, 2013 Rise Set
Actual Time 6:22 AM CDT 6:32 PM CDT
Civil Twilight 5:56 AM CDT 6:58 PM CDT
Nautical Twilight 5:26 AM CDT 7:28 PM CDT
Astronomical Twilight 4:55 AM CDT 7:59 PM CDT
Moon 7:48 PM CDT (9/21) 8:34 AM CDT (9/21)
Length of Visible Light 13h 02m
Length of Day
12h 10m
Waning Gibbous, 94% of the Moon is Illuminated
Sep 21
Waning Gibbous
Sep 26
Last Quarter
Oct 4
New
Oct 11
First Quarter
Oct 18
Full

Hourly Weather History & Observations

Time (CDT) Temp. Dew Point Humidity Pressure Visibility Wind Dir Wind Speed Gust Speed Precip Events Conditions
12:15 AM 64.6 °F 63.5 °F 96% 29.91 in 10.0 mi Calm Calm - N/A   Mostly Cloudy
12:35 AM 64.8 °F 63.5 °F 96% 29.91 in 10.0 mi Calm Calm - N/A   Scattered Clouds
12:55 AM 64.8 °F 63.5 °F 96% 29.90 in 10.0 mi Calm Calm - N/A   Mostly Cloudy
1:15 AM 65.3 °F 63.7 °F 94% 29.89 in 10.0 mi Calm Calm - N/A   Overcast
1:35 AM 64.9 °F 63.7 °F 96% 29.88 in 10.0 mi Calm Calm - N/A   Mostly Cloudy
1:55 AM 65.1 °F 64.0 °F 96% 29.87 in 7.0 mi Calm Calm - N/A   Scattered Clouds
2:15 AM 65.5 °F 64.4 °F 96% 29.86 in 7.0 mi Calm Calm - N/A Rain Light Rain
2:35 AM 65.5 °F 64.4 °F 96% 29.85 in 7.0 mi Calm Calm - N/A   Clear
2:55 AM 66.2 °F 64.6 °F 94% 29.84 in 10.0 mi Calm Calm - N/A   Light Drizzle
3:15 AM 65.5 °F 64.8 °F 98% 29.82 in 7.0 mi Calm Calm - N/A   Mostly Cloudy
3:35 AM 65.7 °F 64.8 °F 97% 29.82 in 7.0 mi Calm Calm - N/A   Light Drizzle
3:55 AM 65.8 °F 65.3 °F 98% 29.81 in 7.0 mi Calm Calm - N/A Rain Light Rain
4:15 AM 66.2 °F 65.5 °F 98% 29.80 in 7.0 mi Calm Calm - N/A   Scattered Clouds
4:35 AM 66.9 °F 65.5 °F 95% 29.80 in 10.0 mi South 4.6 mph - N/A Rain Light Rain
4:55 AM 69.3 °F 64.8 °F 86% 29.79 in 10.0 mi South 5.8 mph - N/A Rain Light Rain
5:15 AM 69.3 °F 64.8 °F 86% 29.79 in 10.0 mi South 5.8 mph - 0.01 in Rain Light Rain
5:35 AM 68.5 °F 64.9 °F 88% 29.78 in 10.0 mi South 4.6 mph - 0.02 in Rain Light Rain
5:55 AM 68.2 °F 65.3 °F 90% 29.78 in 7.0 mi SSW 5.8 mph - 0.02 in Rain Light Rain
6:15 AM 68.4 °F 65.3 °F 90% 29.78 in 10.0 mi South 5.8 mph - N/A Rain Rain
6:35 AM 68.0 °F 65.5 °F 92% 29.77 in 7.0 mi South 5.8 mph - 0.01 in Rain Light Rain
6:55 AM 67.6 °F 65.3 °F 92% 29.78 in 4.0 mi South 8.1 mph - 0.04 in Rain Rain
7:15 AM 67.8 °F 65.5 °F 92% 29.78 in 4.0 mi SSW 6.9 mph - 0.04 in Rain Rain
7:35 AM 68.2 °F 65.5 °F 91% 29.79 in 2.5 mi SSW 6.9 mph - 0.14 in Rain Heavy Rain
7:55 AM 68.2 °F 65.5 °F 91% 29.79 in 1.5 mi South 8.1 mph 16.1 mph 0.38 in Rain Heavy Rain
8:15 AM 67.5 °F 66.6 °F 97% 29.80 in 1.8 mi Calm Calm - 0.18 in Rain Heavy Rain
8:35 AM 66.4 °F 64.6 °F 94% 29.82 in 3.0 mi Calm Calm - 0.31 in Rain Rain
8:55 AM 65.5 °F 64.4 °F 96% 29.83 in 2.0 mi Calm Calm - 0.38 in Rain Rain
9:15 AM 65.5 °F 64.4 °F 96% 29.83 in 5.0 mi Calm Calm - 0.03 in Rain Rain
9:35 AM 65.5 °F 64.4 °F 96% 29.83 in 5.0 mi Calm Calm - 0.06 in Rain Light Rain
9:55 AM 65.5 °F 64.4 °F 96% 29.82 in 7.0 mi Calm Calm - 0.09 in Rain Light Rain
10:15 AM 65.3 °F 64.4 °F 97% 29.81 in 7.0 mi Calm Calm - 0.02 in Rain Rain
10:35 AM 65.7 °F 65.3 °F 99% 29.81 in 5.0 mi Calm Calm - 0.06 in Rain Rain
10:55 AM 65.7 °F 64.4 °F 96% 29.82 in 7.0 mi Calm Calm - 0.08 in Rain Light Rain
11:15 AM 65.5 °F 64.4 °F 96% 29.82 in 3.0 mi Calm Calm - 0.05 in Rain Rain
11:35 AM 65.5 °F 64.4 °F 96% 29.82 in 4.0 mi Calm Calm - 0.09 in Rain Rain
11:55 AM 65.7 °F 65.1 °F 98% 29.82 in 4.0 mi Calm Calm - 0.12 in Rain Light Rain
12:15 PM 66.2 °F 64.8 °F 95% 29.83 in 10.0 mi Calm Calm - N/A   Overcast
12:35 PM 66.9 °F 63.5 °F 89% 29.82 in 10.0 mi Calm Calm - N/A   Overcast
12:55 PM 67.1 °F 63.5 °F 88% 29.82 in 10.0 mi Calm Calm - N/A   Overcast
1:15 PM 67.5 °F 64.0 °F 89% 29.81 in 10.0 mi Calm Calm - N/A   Overcast
1:35 PM 68.0 °F 64.2 °F 88% 29.80 in 10.0 mi Calm Calm - N/A   Overcast
1:55 PM 68.0 °F 63.7 °F 86% 29.80 in 10.0 mi Calm Calm - N/A   Overcast
2:15 PM 68.0 °F 63.3 °F 85% 29.80 in 10.0 mi Calm Calm - N/A   Overcast
2:35 PM 68.0 °F 63.5 °F 85% 29.80 in 10.0 mi Calm Calm - N/A   Overcast
2:55 PM 68.4 °F 63.5 °F 84% 29.80 in 10.0 mi Calm Calm - N/A   Overcast
3:15 PM 68.4 °F 63.9 °F 85% 29.80 in 10.0 mi NNE 3.5 mph - N/A   Overcast
3:35 PM 68.5 °F 63.1 °F 83% 29.79 in 10.0 mi Calm Calm - N/A   Overcast
3:55 PM 67.8 °F 61.9 °F 81% 29.79 in 7.0 mi Calm Calm - N/A   Drizzle
4:15 PM 66.2 °F 63.0 °F 89% 29.79 in 2.5 mi Calm Calm - 0.03 in Rain Light Rain
4:35 PM 67.1 °F 64.0 °F 90% 29.80 in 10.0 mi North 3.5 mph - 0.03 in   Overcast
4:55 PM 66.6 °F 63.7 °F 90% 29.80 in 10.0 mi NNE 3.5 mph - 0.03 in   Overcast
5:15 PM 65.7 °F 63.7 °F 93% 29.81 in 7.0 mi North 3.5 mph - N/A Rain Rain
5:35 PM 64.6 °F 59.9 °F 85% 29.82 in 10.0 mi NNW 5.8 mph - 0.01 in   Overcast
5:55 PM 65.3 °F 58.1 °F 77% 29.82 in 10.0 mi Calm Calm - 0.01 in   Overcast
6:15 PM 64.6 °F 59.4 °F 83% 29.83 in 10.0 mi NE 5.8 mph - N/A   Mostly Cloudy
6:35 PM 63.7 °F 59.4 °F 86% 29.83 in 10.0 mi ENE 4.6 mph - N/A   Scattered Clouds
6:55 PM 62.1 °F 60.1 °F 93% 29.83 in 10.0 mi Calm Calm - N/A   Scattered Clouds
7:15 PM 61.2 °F 60.3 °F 97% 29.84 in 10.0 mi Calm Calm - N/A   Mostly Cloudy
7:35 PM 61.0 °F 59.5 °F 95% 29.85 in 10.0 mi Calm Calm - N/A   Scattered Clouds
7:55 PM 59.7 °F 59.4 °F 99% 29.85 in 10.0 mi Calm Calm - N/A   Clear
8:15 PM 59.0 °F 58.5 °F 98% 29.85 in 10.0 mi Calm Calm - N/A   Clear
8:35 PM 58.1 °F 57.7 °F 99% 29.86 in 10.0 mi Calm Calm - N/A   Clear
8:55 PM 57.7 °F 57.4 °F 99% 29.87 in 10.0 mi Calm Calm - N/A   Clear
9:15 PM 57.2 °F 57.0 °F 99% 29.87 in 7.0 mi Calm Calm - N/A   Clear
9:35 PM 56.5 °F 56.5 °F 100% 29.87 in 7.0 mi Calm Calm - N/A   Clear
9:55 PM 55.9 °F 55.9 °F 100% 29.87 in 5.0 mi Calm Calm - N/A   Clear
10:15 PM 55.6 °F 55.6 °F 100% 29.87 in 5.0 mi Calm Calm - N/A   Scattered Clouds
10:35 PM 55.0 °F 55.0 °F 100% 29.87 in 4.0 mi Calm Calm - N/A   Scattered Clouds
10:55 PM 54.7 °F 54.7 °F 100% 29.87 in 1.0 mi Calm Calm - N/A   Mostly Cloudy
11:15 PM 54.5 °F 54.5 °F 100% 29.87 in 4.0 mi Calm Calm - N/A   Scattered Clouds
11:35 PM 53.8 °F 53.8 °F 100% 29.87 in 4.0 mi Calm Calm - N/A   Clear
11:55 PM 53.8 °F 53.8 °F 100% 29.87 in 0.8 mi Calm Calm - N/A   Overcast